Weather in Montecatini Terme

Italy     43°52′51″N   10°46′31″E
temp.,
°C
wind,
m/s
gust,
m/s
humid.,
%
clouds,
%
prec.,
mm/h
press.,
hPa
HPBL,
m
27 january, wed
wed2701:00−1n22303 0.0 101825
04:00−1n12287 0.0 101722
07:00−1n112711 0.0 101622
10:00+3sse11290 0.0 1017195
13:00+4ssw214050 0.0 1016459
16:00+3ssw125269 0.0 1014224
19:000n226467 0.0 101522
22:000n22720 0.0 101627
28 january, thu
thu2801:000n12720 0.0 101622
04:00−1nw11740 0.0 101521
07:00−1nw11820 0.0 101623
10:00+3sw23764 0.0 1018271
13:00+4sw238038 0.0 1017411
16:00+3wsw2291100 0.0 1014157
19:00+3wsw1297100 0.1 101489
22:00+3wsw1298100 0.0 101477
29 january, fri
fri2901:00+3w1298100 0.0 101356
04:00+4w2298100 0.0 101168
07:00+5sw1299100 0.1 101048
10:00+5wsw2799100 0.8 1009318
13:00+7sw212100100 4.9 1005476
16:00+8wnw119899 0.3 100372
19:00+5nnw238772 0.3 100429
22:00+4nw127333 0.0 100523
30 january, sat
sat3001:00+3nw127567 0.0 100422
04:00+2ene117591 0.0 100222
07:00+3ne229279 0.0 100123
10:00+6s1294100 0.0 1001175
13:00+7wsw2993100 0.1 999703
16:00+6e1299100 2.4 995116
19:00+5n5692100 20.8 993206
22:00+3nne4692100 15.9 993256
31 january, sun
sun3101:00+3n4688100 17.4 993194
04:00+4n3490100 0.0 994118
07:00+3n338897 0.0 99643
10:00+7nnw118468 0.0 99882
13:00+10e127534 0.0 1001675
16:00+8ene128233 0.0 1002375
19:00+4n238333 0.0 100541
22:00+5se118189 0.0 100723